Home   Weather   Phoenix   Past weeks

Flag for USA Past Weather in Phoenix, Arizona, USA — Yesterday and Last 2 Weeks

Now
76 °F

Clear.


Feels Like: 75 °F
Forecast: 62 / 93 °F
Wind: No wind

Location: Phoenix Sky Harbor International Airport

Current Time: Apr 30, 2017 at 11:25:09 pm

Latest Report: Apr 30, 2017 at 10:51 pm


Visibility: 10 mi

Pressure: 29.86 "Hg

Humidity: 11%

Dew Point: 17 °F

Location of PhoenixLocation

Past Weather in Phoenix — Graph

°F

Phoenix Temperature Yesterday

Maximum temperature yesterday: 80 °F (at 5:51 pm)
Minimum temperature yesterday: 58 °F (at 5:51 am)
Average temperature yesterday: 71 °F

High & Low Weather Summary for the Past Weeks

 TemperatureHumidityPressure
High98 °F (Apr 23, 3:51 pm)42% (Apr 25, 6:51 am)30.01 "Hg (Apr 25, 6:51 am)
Low58 °F (Apr 29, 5:51 am)4% (Apr 20, 4:51 pm)29.49 "Hg (Apr 27, 4:51 pm)
Average79 °F17%29.76 "Hg
* Reported Apr 15 9:51 pm — Apr 30 9:51 pm, Phoenix, Weather by CustomWeather, © 2017

Note: Actual official high and low records may vary slightly from our data, if they occured in-between our weather recording intervals... More about our weather records

Advertising

Phoenix Weather History for the Previous 24 Hours

Scroll right to see more
 ConditionsComfort  
Time TempWeatherWind HumidityBarometerVisibility
9:51 pm
Sun, Apr 30
76 °FClear.No wind10%29.85 "Hg10 mi
8:51 pm79 °FClear.No wind8%29.85 "Hg10 mi
7:51 pm81 °FPassing clouds.5 mph8%29.84 "Hg10 mi
6:51 pm84 °FPassing clouds.9 mph6%29.83 "Hg10 mi
5:51 pm86 °FPassing clouds.12 mph6%29.85 "Hg10 mi
4:51 pm86 °FPassing clouds.N/A7%29.85 "Hg10 mi
3:51 pm85 °FPassing clouds.7 mph8%29.87 "Hg10 mi
2:51 pm84 °FSunny.6 mph7%29.91 "Hg10 mi
1:51 pm83 °FSunny.13 mph8%29.94 "Hg10 mi
12:51 pm81 °FSunny.6 mph9%29.96 "Hg10 mi
11:51 am80 °FSunny.5 mph10%29.99 "Hg10 mi
10:51 am77 °FSunny.3 mph11%30.01 "Hg10 mi
9:51 am75 °FSunny.6 mph12%30.01 "Hg10 mi
8:51 am73 °FSunny.9 mph14%30.01 "Hg10 mi
7:51 am69 °FSunny.10 mph17%30.00 "Hg10 mi
6:51 am63 °FPassing clouds.6 mph25%30.00 "Hg10 mi
5:51 am60 °FPassing clouds.3 mph30%29.98 "Hg10 mi
4:51 am61 °FPassing clouds.No wind25%29.98 "Hg10 mi
3:51 am63 °FClear.5 mph23%29.97 "Hg10 mi
2:51 am64 °FClear.7 mph23%29.96 "Hg10 mi
1:51 am65 °FClear.6 mph21%29.95 "Hg10 mi
12:51 am66 °FClear.7 mph21%29.94 "Hg10 mi
11:51 pm
Sat, Apr 29
67 °FClear.3 mph21%29.93 "Hg10 mi
Weather by CustomWeather, © 2017

See weather overviewHow to use our weather pages